Regional Weather Roundup
Issued by NWS

Home | Current Version | Previous Version | Text Only | Print | Product List | Glossary On
Versions: 1 2 3 4 5 6 7 8 9 10 11 12 13 14 15 16 17 18 19 20 21 22 23 24 25 26 27 28 29 30 31 32 33 34 35 36 37 38 39 40 41 42 43 44 45 46 47 48 49 50
000
ASUS43 KDTX 271710
RWRMI
MICHIGAN HOURLY REGIONAL WEATHER ROUNDUP
NATIONAL WEATHER SERVICE DETROIT/PONTIAC MI
100 PM EDT MON JUL 27 2015

NOTE: "FAIR" INDICATES FEW OR NO CLOUDS BELOW 12,000 FEET WITH NO
SIGNIFICANT WEATHER AND/OR OBSTRUCTION TO VISIBILITY.

MIZ047>049-052>055-059>063-066>070-074>076-081>083-271800-
SOUTHEAST LOWER MICHIGAN

CITY           SKY/WX    TMP DP  RH WIND       PRES   REMARKS
ADRIAN         SUNNY     84  61  45 SE10      30.06S
ALMA           SUNNY     85  61  44 E7        30.07S
ANN ARBOR      SUNNY     84  59  42 VRB7      30.06S
BAD AXE        SUNNY     84  61  45 CALM      30.06S
DETROIT CITY   MOSUNNY   85  60  42 VRB6      30.05F
DETROIT        PTSUNNY   86  61  42 E7        30.06S
FLINT          SUNNY     88  59  37 E7        30.06F
GROSSE ILE     SUNNY     84  64  51 E3        30.04S
HILLSDALE      MOSUNNY   82  60  46 E7G16     30.08S
HOWELL         SUNNY     85  56  36 E7        30.07S

CITY           SKY/WX    TMP DP  RH WIND       PRES   REMARKS
JACKSON        SUNNY     84  63  49 E7        30.07S
LAMBERTVILLE   SUNNY     83  62  49 E7        30.06R
LANSING        SUNNY     84  62  47 E9        30.06F
LAPEER         NOT AVBL
MASON          SUNNY     82  62  52 E6        30.07F
MONROE         SUNNY     83  63  50 E6        30.04S
MT. CLEMENS    MOSUNNY   83  61  45 VRB3      30.05F
PONTIAC        MOSUNNY   85  56  37 VRB3      30.06F
PORT HOPE        N/A     82  64  54 NW3       30.04S
PORT HURON     SUNNY     84  57  39 CALM      30.05F
TRI CITIES     SUNNY     87  63  44 VRB5      30.06S
YPSILANTI      SUNNY     90  60  36 SE7       30.06F
$$
MIZ043>046-050>051-056>058-064>065-071>073-077>080-271800-
SOUTHWEST LOWER MICHIGAN

CITY           SKY/WX    TMP DP  RH WIND       PRES   REMARKS
BATTLE CREEK   MOSUNNY   85  59  41 VRB7      30.07S
BENTON HARBOR  SUNNY     86  63  45 E9        30.03F
BIG RAPIDS     SUNNY     85  54  34 CALM      30.06F
COLDWATER      SUNNY     81  63  54 SE7       30.06S
HOLLAND        SUNNY     87  64  46 E12       30.05F
GRAND RAPIDS   PTSUNNY   85  61  44 E8        30.06F
KALAMAZOO      SUNNY     85  61  44 E8        30.06S
MARSHALL       MOSUNNY   83  64  52 CALM      30.06S
MUSKEGON       MOSUNNY   88  59  37 E8        30.05S
$$
MIZ016>042-271800-
NORTHERN LOWER MICHIGAN

CITY           SKY/WX    TMP DP  RH WIND       PRES   REMARKS
ALPENA         MOSUNNY   89  64  43 N7        30.04S HX  90
BEAVER ISLAND  SUNNY     82  66  59 W5        30.05S
BELLAIRE       SUNNY     86  58  38 W7        30.05S
CADILLAC       SUNNY     88  59  37 W5        30.08S
CHARLEVOIX     SUNNY     84  62  47 W8        30.07F
FRANKFORT      SUNNY     88  61  40 W8        30.06R
GAYLORD        SUNNY     86  59  39 W9        30.07S
GRAYLING       SUNNY     87  58  37 CALM      30.07F
HARBOR SPRINGS SUNNY     76  65  69 SW6       30.04F
HOUGHTON LAKE  SUNNY     84  59  42 SW8       30.07F
MANISTEE       SUNNY     84  63  48 NW5       30.06R
OSCODA         PTSUNNY   88  61  39 E9        30.03S
PELLSTON       SUNNY     89  60  37 VRB7      30.04S
TRAVERSE CITY  MOSUNNY   89  61  38 NE8       30.03S
$$
MIZ007>008-015-271800-
EASTERN UPPER MICHIGAN

CITY           SKY/WX    TMP DP  RH WIND       PRES   REMARKS
KINROSS        SUNNY     86  55  35 NW7       30.03F
MACKINAC ISLAN   N/A     82  63  52 SW6       30.04S
$$
MIZ004>006-011>014-085-271800-
CENTRAL UPPER MICHIGAN

CITY           SKY/WX    TMP DP  RH WIND       PRES   REMARKS
MANISTIQUE     SUNNY     84  66  54 S7        30.03F
ESCANABA       SUNNY     82  64  54 S9        30.02S
MENOMINEE      SUNNY     84  63  48 E7        30.03F
SAWYER-GWINN   MOSUNNY   68  61  77 SW6       30.04F
$$
MIZ001>003-009>011-084-271800-
WESTERN UPPER MICHIGAN

CITY           SKY/WX    TMP DP  RH WIND       PRES   REMARKS
IRON MOUNTAIN  SUNNY     88  60  38 S7        30.04F
HOUGHTON       SUNNY     84  65  52 NW13      30.03S
COPPER HARBOR    N/A     73  63  70 NE13      30.00S
IRONWOOD       SUNNY     82  59  44 CALM      30.01F
$$

ABBREVIATIONS USED IN REMARKS
   TC - TEMPERATURE IN CELSIUS
  WCI - WIND CHILL INDEX
   HX - HEAT INDEX
  VSB - VISIBILITY



USA.gov is the U.S. government's official web portal to all federal, state and local government web resources and services.